Shelbyville, IN

4:46 AM EST on November 22, 2019 (GMT -0500)
Shelbyville Municipal

Weather History for KGEZ - September, 2019

Change the Weather History Date:

Tuesday, September 3, 2019

  Actual Average Record
Temperature  
Mean Temperature 72 °F 70 °F  
Max Temperature 84 °F 82 °F 98 °F (2011)
Min Temperature 59 °F 58 °F 51 °F (2005)
Degree Days  
Heating Degree Days 0 0  
Month to date heating degree days 0 0  
Since 1 July heating degree days 0 6  
Cooling Degree Days 7 5  
Month to date cooling degree days 23 17  
Year to date cooling degree days 1084 823  
Growing Degree Days 22 (Base 50)    
Moisture  
Dew Point 64 °F    
Average Humidity 76    
Maximum Humidity 93    
Minimum Humidity 58    
Precipitation  
Precipitation 0.00 in 0.09 in 0.08 in (2004)
Month to date precipitation 0.52 0.30  
Year to date precipitation 31.98 30.58  
Sea Level Pressure  
Sea Level Pressure 30.01 in    
Wind  
Wind Speed 6 mph (South)    
Max Wind Speed 16 mph    
Max Gust Speed 24 mph    
Visibility 8 miles    
Events      
T = Trace of Precipitation, MM = Missing Value Source: NWS Daily Summary

Daily Weather History Graph

Daily Weather History Graph

Search for Another Location

Airport or City:

Astronomy

Sep. 03, 2019 Rise Set
Actual Time 7:13 AM EDT 8:11 PM EDT
Civil Twilight 6:45 AM EDT 8:38 PM EDT
Nautical Twilight 6:12 AM EDT 9:11 PM EDT
Astronomical Twilight 5:38 AM EDT 9:45 PM EDT
Moon 12:04 PM EDT (9/3) 11:09 PM EDT (9/3)
Length of Visible Light 13h 53m
Length of Day
12h 58m
Waxing Crescent, 24% of the Moon is Illuminated
Sep 3
Waxing Crescent
Sep 5
First Quarter
Sep 14
Full
Sep 21
Last Quarter
Sep 28
New

Hourly Weather History & Observations

Time (EDT) Temp. Heat Index Dew Point Humidity Pressure Visibility Wind Dir Wind Speed Gust Speed Precip Events Conditions
12:53 AM 64.0 °F - 61.0 °F 90% 30.06 in 10.0 mi Calm Calm - N/A   Clear
1:53 AM 63.0 °F - 60.1 °F 90% 30.06 in 10.0 mi Calm Calm - N/A   Clear
2:53 AM 62.1 °F - 59.0 °F 90% 30.04 in 8.0 mi East 3.5 mph - N/A   Clear
3:53 AM 62.1 °F - 59.0 °F 90% 30.04 in 6.0 mi East 3.5 mph - N/A   Clear
4:24 AM 61.0 °F - 59.0 °F 93% 30.05 in 1.8 mi Calm Calm - N/A   Clear
4:38 AM 62.1 °F - 59.0 °F 90% 30.05 in 2.0 mi Calm Calm - N/A   Clear
4:53 AM 61.0 °F - 57.9 °F 90% 30.03 in 3.0 mi Calm Calm - N/A   Clear
5:07 AM 61.0 °F - 57.9 °F 90% 30.04 in 1.8 mi SE 3.5 mph - N/A   Clear
5:21 AM 60.1 °F - 57.9 °F 93% 30.04 in 3.0 mi ESE 3.5 mph - N/A   Clear
5:53 AM 61.0 °F - 57.9 °F 90% 30.04 in 10.0 mi Calm Calm - N/A   Clear
6:53 AM 60.1 °F - 57.0 °F 90% 30.04 in 10.0 mi Calm Calm - N/A   Clear
7:53 AM 61.0 °F - 57.9 °F 90% 30.06 in 8.0 mi Calm Calm - N/A   Clear
8:53 AM 68.0 °F - 63.0 °F 84% 30.05 in 10.0 mi SSE 5.8 mph - N/A   Clear
9:53 AM 71.1 °F - 64.0 °F 78% 30.06 in 10.0 mi SSW 6.9 mph - N/A   Clear
10:53 AM 75.0 °F - 66.0 °F 73% 30.06 in 10.0 mi South 8.1 mph - N/A   Scattered Clouds
11:53 AM 77.0 °F - 66.9 °F 71% 30.06 in 10.0 mi South 6.9 mph - N/A   Clear
12:53 PM 79.0 °F - 66.9 °F 66% 30.03 in 10.0 mi South 6.9 mph - N/A   Partly Cloudy
1:53 PM 80.1 °F 82.3 °F 66.9 °F 64% 30.02 in 10.0 mi Calm Calm - N/A   Mostly Cloudy
2:30 PM 81.0 °F 83.3 °F 66.9 °F 62% 30.02 in 10.0 mi South 5.8 mph - N/A   Overcast
2:53 PM 81.0 °F 83.3 °F 66.9 °F 62% 29.99 in 10.0 mi SSE 5.8 mph - N/A   Mostly Cloudy
3:53 PM 84.0 °F 87.8 °F 69.1 °F 61% 29.97 in 10.0 mi South 9.2 mph 16.1 mph N/A   Clear
4:53 PM 84.0 °F 87.0 °F 68.0 °F 58% 29.92 in 10.0 mi South 12.7 mph - N/A   Clear
5:53 PM 84.0 °F 87.0 °F 68.0 °F 58% 29.93 in 10.0 mi South 12.7 mph - N/A   Clear
6:53 PM 82.0 °F 84.5 °F 66.9 °F 60% 29.93 in 10.0 mi SW 11.5 mph - N/A   Clear
7:53 PM 79.0 °F - 68.0 °F 69% 29.92 in 10.0 mi SSW 9.2 mph - N/A   Partly Cloudy
8:53 PM 78.1 °F - 66.9 °F 68% 29.90 in 10.0 mi SSW 10.4 mph - N/A   Clear
9:53 PM 75.0 °F - 68.0 °F 79% 29.91 in 10.0 mi SSW 6.9 mph - N/A   Clear
10:53 PM 73.9 °F - 68.0 °F 82% 29.91 in 10.0 mi SSW 6.9 mph - N/A   Clear
11:53 PM 73.0 °F - 68.0 °F 84% 29.93 in 10.0 mi SW 4.6 mph - N/A   Clear